Tracking 35274 objects as of 12-Sep-2026
HD Live streaming from Space Station
objects crossing your sky now

INNOSAT 2


INNOSAT 2 is no longer on orbit
INNOSAT 2 is classified as:


NORAD ID: 43738
Int'l Code: 2018-096V
Launch date: November 29, 2018
Source: (TBD)
Launch site: SRIHARIKOTA (SRI)
Decay date: 2022-12-09

Uplink (MHz):
Downlink (MHz): 435.500*/437.450
Beacon (MHz):
Mode: 4k8 GMSK
Call sign:
Status: Reentered

Your satellite tracking list
Your tracking list is empty




NASA's NSSDC Master Catalog

Two Line Element Set (TLE):
1 43738U 18096V   22343.08104257  .10091013  24890-5  49773-3 0  9996
2 43738  97.3404  79.6751 0009825 290.2937 171.3040 16.42045585225820
Source of the keplerian elements: AFSPC